Location: Zlin
(49.2330°N, 17.6670°E)
Time: 17:33:13
(UTC+02:00)

ISS - Visible Passes

Search period start: 19 April 2024 00:00
Search period end: 29 April 2024 00:00
Orbit: 412 x 418 km, 51.6° (Epoch: 19 April)

Date Brightness Start Highest point End Pass type
(mag) Time Alt. Az. Time Alt. Az. Time Alt. Az.
21 Apr -1.0 04:47:44 10° SSE 04:48:50 11° SE 04:49:56 10° ESE visible
23 Apr -2.0 04:44:35 10° SSW 04:47:20 24° SE 04:50:06 10° E visible
24 Apr -1.5 03:57:13 13° SSE 03:58:32 16° SE 04:00:40 10° E visible
25 Apr -1.0 03:10:02 10° SE 03:10:02 10° SE 03:10:05 10° SE visible
25 Apr -3.2 04:42:53 12° SW 04:45:48 49° SSE 04:49:02 10° ENE visible
26 Apr -2.7 03:55:37 25° S 03:56:48 33° SSE 03:59:50 10° E visible
27 Apr -2.0 03:08:14 21° SE 03:08:14 21° SE 03:10:28 10° E visible
27 Apr -3.8 04:41:05 12° WSW 04:44:12 89° SE 04:47:33 10° ENE visible
28 Apr -3.7 03:53:37 31° SW 03:55:01 65° SSE 03:58:20 10° ENE visible
